Location: Columbia
(38.9520°N, 92.3340°W)
Time: 09:15:18
(UTC-05:00)

Iridium 52 - Visible Passes

Search period start: 29 May 2015 00:00
Search period end: 08 June 2015 00:00
Orbit: 776 x 779 km, 86.4° (Epoch: 28 May)

Date Brightness Start Highest point End Pass type
(mag) Time Alt. Az. Time Alt. Az. Time Alt. Az.
29 May 6.8 04:41:28 10° SSE 04:46:30 54° E 04:51:35 10° NNE visible
30 May 7.9 04:08:45 10° SE 04:13:06 29° E 04:17:35 10° NNE visible
31 May 8.6 03:36:55 10° ESE 03:39:48 16° E 03:42:56 10° NE visible
01 Jun 6.2 04:41:21 10° S 04:46:33 79° E 04:51:47 10° N visible
02 Jun 7.2 04:08:16 10° SSE 04:13:07 42° E 04:18:01 10° NNE visible
03 Jun 8.2 03:35:51 10° SE 03:39:45 23° E 03:43:49 10° NNE visible
04 Jun 8.7 03:04:44 10° E 03:06:29 12° E 03:08:34 10° NE visible
04 Jun 6.0 04:41:27 10° S 04:46:39 71° W 04:51:52 10° N visible
05 Jun 6.5 04:08:02 10° SSE 04:13:09 61° E 04:18:18 10° N visible
06 Jun 7.6 03:35:11 10° SSE 03:39:44 33° E 03:44:23 10° NNE visible
07 Jun 8.4 03:03:08 10° ESE 03:06:25 18° E 03:09:55 10° NE visible
07 Jun 6.4 04:41:49 10° SSW 04:46:47 48° W 04:51:50 10° N visible
